[[{"header":{"parameterUnit":"m.s-1","parameterCategory":1,"la1":30.2992,"la2":30.254,"lo1":-89.0895,"lo2":-89.0443,"dy":0.0025,"dx":0.0025,"nx":19,"ny":19,"refTime":"2026-04-24T09:00:00:Z","depth":0,"parameterNumber":2,"parameterNumberName":"U-component_of_WINDS"},"data":[0,0,0,0.5041,0.5041,0.5043,0.5043,0.5051,0.5051,0,0,0,0,0,0,0,0,0,0,0,0.5044,0.5044,0.5041,0.5041,0.5043,0.5043,0.5051,0.5051,0,0,0,0,0,0,0,0,0,0,0,0.5044,0.5044,0.5044,0.5041,0.5043,0.5043,0.5051,0.5047,0,0,0,0,0,0,0,0,0,0,0.5044,0.5051,0.5044,0.5044,0.5041,0.5043,0.5043,0.5047,0.5048,0.5052,0,0.5058,0,0.5055,0.5052,0.5052,0,0,0,0.5038,0.5051,0.5048,0.5044,0.5041,0.5043,0.5041,0.5047,0.5048,0.5053,0.5058,0.5058,0.5055,0.5052,0.5052,0.509,0.5091,0,0,0.5038,0.5046,0.5047,0.5048,0.5049,0.5041,0.5041,0.5048,0.5054,0.5058,0.5059,0.5055,0.5052,0.5052,0.509,0.509,0,0,0,0.5039,0.5046,0.5043,0.5048,0.5048,0.5041,0.5042,0.5053,0.5052,0.5059,0.5055,0.5052,0.5053,0.509,0.509,0.5114,0,0,0,0.5039,0.5047,0.5043,0.5049,0.5048,0.5051,0.5048,0.5051,0.5052,0.5055,0.5052,0.5053,0.5089,0.509,0.5112,0.5123,0,0,0,0.5042,0.5048,0.5049,0.5049,0.505,0.5051,0.5049,0.5051,0.505,0.5052,0.5053,0.5089,0.509,0.5111,0.5121,0.5135,0,0,0,0.5048,0.5071,0.505,0.5073,0.505,0.5066,0.5049,0.506,0.5065,0.5052,0.5089,0.509,0.5111,0.512,0.5134,0.5148,0.5154,0,0,0.5081,0.5075,0.5088,0.5069,0.5091,0.5065,0.5089,0.5085,0.5078,0.5086,0.5087,0.5113,0.5121,0.5135,0.5191,0.5196,0,0,0,0.5101,0.5111,0.5114,0.512,0.5117,0.5116,0.5108,0.5106,0.5113,0.5084,0.5121,0.5126,0.5134,0.514,0.5145,0.515,0.5094,0.5094,0.5093,0.516,0.5149,0.5169,0.5158,0.5163,0.5154,0.5156,0.5153,0.514,0.5149,0.5152,0.5187,0.5195,0.5198,0.5204,0.5159,0.5159,0.5159,0.5159,0.5207,0.5218,0.52,0.5214,0.5201,0.5212,0.5204,0.5194,0.5202,0.5185,0.5191,0.5173,0.5205,0.5209,0.5161,0.516,0.516,0.516,0.516,0.5243,0.5247,0.5244,0.5249,0.5254,0.5242,0.525,0.5238,0.5228,0.5234,0.5234,0.5234,0.5231,0.5235,0.5235,0.5235,0.5235,0.5236,0.5236,0.5282,0.5279,0.5287,0.5285,0.5286,0.5286,0.5276,0.5277,0.5274,0.5265,0.5265,0.5251,0.521,0.52,0.5237,0.5237,0.5237,0.5237,0.5237,0.5332,0.5319,0.5332,0.5333,0.5329,0.5334,0.5319,0.5321,0.5319,0.5323,0.5308,0.528,0.5273,0.5269,0.526,0.5311,0.5311,0.5311,0.5311,0.5362,0.5358,0.5367,0.5369,0.537,0.5358,0.5371,0.5363,0.5353,0.5351,0.5342,0.533,0.5326,0.5321,0.5316,0.5307,0.5369,0.5369,0.5369,0.5392,0.5387,0.5401,0.539,0.5387,0.5383,0.5395,0.5397,0.5383,0.5371,0.5349,0.5346,0.5326,0.532,0.5308,0.5301,0.5285,0,0]},{"header":{"parameterUnit":"m.s-1","parameterCategory":1,"la1":30.2992,"la2":30.254,"lo1":-89.0895,"lo2":-89.0443,"dy":0.0025,"dx":0.0025,"nx":19,"ny":19,"refTime":"2026-04-24T09:00:00:Z","depth":0,"parameterNumber":3,"parameterNumberName":"V-component_of_WINDS"},"data":[0,0,0,3.9997,3.9998,4.007,4.007,4.0166,4.0167,0,0,0,0,0,0,0,0,0,0,0,3.998,3.9981,3.9997,3.9999,4.007,4.0071,4.0166,4.0167,0,0,0,0,0,0,0,0,0,0,0,3.998,3.9981,3.9982,3.9999,4.007,4.0071,4.0166,4.0109,0,0,0,0,0,0,0,0,0,0,4.0039,4.0029,3.9981,3.9982,3.9999,4.007,4.0071,4.0107,4.0113,4.0136,0,4.016,0,4.0165,4.0174,4.0174,0,0,0,3.9994,4.0024,4.0039,3.9982,4.0,4.007,4.0037,4.011,4.0117,4.0144,4.0162,4.0165,4.0167,4.0175,4.0175,4.033,4.0331,0,0,3.999,3.9995,4.0035,4.0044,4.0037,4.0034,4.0039,4.0114,4.0132,4.0162,4.0167,4.0169,4.0175,4.0176,4.0329,4.033,0,0,0,3.9982,3.9993,4.0006,4.0041,4.0053,4.0037,4.0042,4.0129,4.0133,4.0168,4.017,4.0176,4.0177,4.0328,4.0329,4.0382,0,0,0,3.9979,3.9988,4.0004,4.0008,4.0052,4.0093,4.0055,4.0128,4.0136,4.0169,4.0176,4.0178,4.0327,4.0329,4.0379,4.0406,0,0,0,3.9974,3.9987,4.0,4.0008,4.004,4.0091,4.01,4.0129,4.0137,4.0174,4.0178,4.0326,4.0328,4.0375,4.0401,4.0449,0,0,0,3.9969,4.0044,4.0001,4.0084,4.0039,4.0124,4.0099,4.0161,4.0199,4.0176,4.0327,4.0329,4.0374,4.0397,4.0446,4.0491,4.0511,0,0,4.0066,4.0056,4.0105,4.0068,4.0163,4.0113,4.0214,4.0242,4.0239,4.0299,4.0303,4.038,4.04,4.0448,4.0618,4.0634,0,0,0,4.0137,4.0172,4.0196,4.0234,4.026,4.0283,4.0296,4.0306,4.0357,4.0272,4.041,4.0422,4.045,4.0471,4.0485,4.0508,4.0339,4.0339,4.0339,4.0281,4.0276,4.0357,4.036,4.0397,4.041,4.0439,4.0455,4.0436,4.0469,4.0487,4.0591,4.0616,4.0626,4.0651,4.051,4.051,4.051,4.0511,4.0423,4.0472,4.0449,4.0519,4.0512,4.0569,4.0584,4.0569,4.062,4.0577,4.0601,4.0554,4.0644,4.0665,4.0515,4.0514,4.0513,4.0513,4.0513,4.0517,4.054,4.0553,4.0609,4.0651,4.065,4.0702,4.0693,4.0684,4.0708,4.0726,4.0725,4.0723,4.0717,4.0718,4.0718,4.0718,4.0719,4.0719,4.061,4.0623,4.0669,4.0703,4.0727,4.0756,4.077,4.0792,4.0814,4.0803,4.0803,4.0782,4.0654,4.0622,4.0724,4.0723,4.0723,4.0722,4.0722,4.0756,4.0722,4.0793,4.0817,4.0856,4.0899,4.0887,4.0933,4.0949,4.0975,4.0948,4.0855,4.0843,4.0832,4.0806,4.095,4.095,4.095,4.095,4.0836,4.083,4.0901,4.094,4.0976,4.0973,4.1052,4.1063,4.1069,4.1078,4.1056,4.102,4.101,4.1003,4.0989,4.0964,4.1145,4.1145,4.1145,4.0926,4.0923,4.0993,4.1001,4.1031,4.1056,4.113,4.1173,4.1172,4.1153,4.1086,4.1077,4.1019,4.1001,4.098,4.0958,4.0913,0,0]}]]